This demonstration page uses our WeatherBlox Daily Observations layout. Learn more.

Left ArrowRight Arrow

Hourly Observations for January 26, 2017

Temp ( °F °C ) Dew Point ( °F °C ) Humidity (%) Winds ( mph kmh ) Pressure ( in mb ) Visibility ( mi km ) Precip ( " mm )
12:15 am 00:15 Cloudy 37 3 27 -3 65 65 W 26 43 29.68 1005 10 16 N/A
12:36 am 00:36 Cloudy 37 3 27 -3 65 65 W 26 43 29.68 1005 10 16 N/A
12:55 am 00:55 Cloudy 37 3 27 -3 65 65 WSW 22 35 29.68 1005 10 16 N/A
1:16 am 01:16 Cloudy 36 2 28 -2 75 75 W 29 46 29.68 1005 10 16 N/A
1:36 am 01:36 Cloudy 36 2 28 -2 75 75 W 23 37 29.68 1005 10 16 N/A
1:55 am 01:55 Cloudy 36 2 28 -2 75 75 W 22 35 29.68 1005 10 16 N/A
2:16 am 02:16 Cloudy 36 2 28 -2 75 75 W 21 33 29.68 1005 10 16 N/A
2:36 am 02:36 Cloudy 36 2 28 -2 75 75 W 23 37 29.68 1005 10 16 N/A
2:55 am 02:55 Cloudy 36 2 28 -2 75 75 W 23 37 29.68 1005 10 16 N/A
3:16 am 03:16 Cloudy 36 2 28 -2 75 75 W 20 31 29.68 1005 10 16 N/A
3:36 am 03:36 Cloudy 36 2 28 -2 75 75 W 28 44 29.68 1005 10 16 N/A
3:55 am 03:55 Cloudy 36 2 28 -2 75 75 W 21 33 29.68 1005 10 16 N/A
4:16 am 04:16 Cloudy 34 1 28 -2 81 81 W 25 41 29.68 1005 10 16 N/A
4:36 am 04:36 Cloudy 34 1 30 -1 87 87 W 18 30 29.68 1005 10 16 N/A
4:55 am 04:55 Cloudy 34 1 30 -1 87 87 W 18 30 29.68 1005 10 16 N/A
5:16 am 05:16 Cloudy 34 1 30 -1 87 87 WSW 20 31 29.71 1006 10 16 N/A
5:36 am 05:36 Cloudy 34 1 30 -1 87 87 W 18 30 29.71 1006 10 16 N/A
5:55 am 05:55 Cloudy 34 1 30 -1 87 87 W 18 30 29.71 1006 10 16 N/A
6:16 am 06:16 Cloudy 34 1 32 undefined 93 93 W 21 33 29.71 1006 10 16 N/A
6:36 am 06:36 Cloudy 34 1 32 undefined 93 93 W 17 28 29.71 1006 7 11 N/A
6:55 am 06:55 Cloudy 34 1 32 undefined 93 93 W 15 24 29.74 1007 5 8 N/A
7:16 am 07:16 Cloudy 34 1 32 undefined 93 93 W 17 28 29.74 1007 5 8 N/A
7:36 am 07:36 Cloudy 34 1 32 undefined 93 93 W 20 31 29.77 1008 7 11 N/A
7:55 am 07:55 Cloudy 34 1 32 undefined 93 93 W 21 33 29.77 1008 10 16 N/A
8:16 am 08:16 Cloudy 34 1 32 undefined 93 93 W 18 30 29.80 1009 10 16 N/A
8:36 am 08:36 Cloudy 34 1 32 undefined 93 93 W 20 31 29.80 1009 10 16 N/A
8:55 am 08:55 Cloudy 34 1 32 undefined 93 93 W 18 30 29.80 1009 10 16 N/A
9:16 am 09:16 Cloudy 32 undefined 30 -1 93 93 WNW 17 28 29.85 1011 2 3 N/A
9:36 am 09:36 Cloudy 34 1 32 undefined 93 93 W 18 30 29.83 1010 10 16 N/A
9:55 am 09:55 Cloudy 34 1 32 undefined 93 93 WNW 25 41 29.88 1012 7 11 N/A
10:16 am 10:16 Cloudy 34 1 30 -1 87 87 W 24 39 29.88 1012 10 16 N/A
10:36 am 10:36 Cloudy 34 1 30 -1 87 87 W 21 33 29.88 1012 7 11 N/A
10:55 am 10:55 Cloudy 34 1 30 -1 87 87 W 20 31 29.88 1012 3 5 N/A
11:16 am 11:16 Cloudy 34 1 30 -1 87 87 W 18 30 29.91 1013 4 6 N/A
11:36 am 11:36 Cloudy 34 1 30 -1 87 87 W 22 35 29.94 1014 7 11 N/A
11:56 am 11:56 Cloudy 32 undefined 30 -1 93 93 W 16 26 29.94 1014 4 6 N/A
12:16 pm 12:16 Cloudy 34 1 30 -1 87 87 W 20 31 29.94 1014 10 16 N/A
12:35 pm 12:35 Cloudy 32 undefined 28 -2 87 87 W 23 37 29.94 1014 7 11 N/A
12:56 pm 12:56 Cloudy 32 undefined 30 -1 93 93 W 17 28 29.94 1014 3 5 N/A
1:16 pm 13:16 Cloudy 32 undefined 28 -2 87 87 W 22 35 29.94 1014 10 16 N/A
1:35 pm 13:35 Cloudy 32 undefined 27 -3 80 80 W 22 35 29.94 1014 10 16 N/A
1:56 pm 13:56 Cloudy 32 undefined 27 -3 80 80 W 16 26 29.94 1014 10 16 N/A
2:16 pm 14:16 Cloudy 32 undefined 28 -2 87 87 W 18 30 29.94 1014 7 11 N/A
2:35 pm 14:35 Cloudy 32 undefined 28 -2 87 87 WNW 24 39 29.94 1014 5 8 N/A
2:56 pm 14:56 Cloudy 30 -1 27 -3 86 86 W 16 26 29.97 1015 4 6 N/A
3:16 pm 15:16 Cloudy 30 -1 27 -3 86 86 W 18 30 29.97 1015 10 16 N/A
3:35 pm 15:35 Cloudy 30 -1 27 -3 86 86 W 17 28 29.97 1015 3 5 N/A
3:56 pm 15:56 Cloudy 30 -1 25 -4 80 80 W 21 33 29.97 1015 10 16 N/A
4:16 pm 16:16 Cloudy 30 -1 25 -4 80 80 W 16 26 30.00 1016 10 16 N/A
4:35 pm 16:35 Cloudy 30 -1 25 -4 80 80 W 14 22 30.00 1016 10 16 N/A
4:56 pm 16:56 Cloudy 30 -1 25 -4 80 80 W 14 22 30.00 1016 10 16 N/A
5:16 pm 17:16 Cloudy 30 -1 25 -4 80 80 W 16 26 30.00 1016 10 16 N/A
5:36 pm 17:36 Cloudy 30 -1 25 -4 80 80 W 16 26 30.00 1016 10 16 N/A
5:56 pm 17:56 Cloudy 30 -1 25 -4 80 80 W 13 20 30.00 1016 10 16 N/A
6:15 pm 18:15 Cloudy 30 -1 25 -4 80 80 W 13 20 30.03 1017 10 16 N/A
6:36 pm 18:36 Cloudy 32 undefined 25 -4 75 75 W 14 22 30.03 1017 10 16 N/A
6:56 pm 18:56 Cloudy 30 -1 25 -4 80 80 W 20 31 30.03 1017 10 16 N/A
7:15 pm 19:15 Cloudy 30 -1 25 -4 80 80 WSW 17 28 30.03 1017 10 16 N/A
7:36 pm 19:36 Cloudy 30 -1 25 -4 80 80 WSW 16 26 30.03 1017 10 16 N/A
7:56 pm 19:56 Cloudy 30 -1 25 -4 80 80 WSW 16 26 30.03 1017 10 16 N/A
8:15 pm 20:15 Cloudy 30 -1 25 -4 80 80 W 14 22 30.03 1017 10 16 N/A
8:36 pm 20:36 Cloudy 30 -1 27 -3 86 86 WSW 14 22 30.03 1017 10 16 N/A
8:56 pm 20:56 Cloudy 30 -1 27 -3 86 86 WSW 13 20 30.03 1017 10 16 N/A
9:15 pm 21:15 Cloudy 30 -1 27 -3 86 86 WSW 14 22 30.03 1017 10 16 N/A
9:36 pm 21:36 Cloudy 30 -1 27 -3 86 86 WSW 15 24 30.03 1017 10 16 N/A
9:56 pm 21:56 Cloudy 30 -1 27 -3 86 86 W 15 24 30.03 1017 10 16 N/A
10:15 pm 22:15 Cloudy 30 -1 27 -3 86 86 W 17 28 30.03 1017 7 11 N/A
10:36 pm 22:36 Cloudy 30 -1 27 -3 86 86 W 16 26 30.03 1017 10 16 N/A
10:56 pm 22:56 Cloudy 30 -1 27 -3 86 86 W 15 24 30.03 1017 3 4 N/A
11:16 pm 23:16 Cloudy 30 -1 27 -3 86 86 W 12 19 30.03 1017 7 11 N/A
11:36 pm 23:36 Cloudy 30 -1 27 -3 86 86 W 15 24 30.03 1017 10 16 N/A
11:56 pm 23:56 Cloudy 30 -1 27 -3 86 86 W 13 20 30.03 1017 10 16 N/A

Powered by AerisWeather